Time,TemperatureF,DewpointF,PressureIn,WindDirection,WindDirectionDegrees,WindSpeedMPH,WindSpeedGustMPH,Humidity,HourlyPrecipIn,Conditions,Clouds,dailyrainin,SoftwareType,DateUTC
2013-04-14 00:01:00,54.5,44.9,29.86,ESE,105,0.0,2.0,70,0.00,,CLR,0.00,VWS V14.01,2013-04-14 05:01:00,
2013-04-14 00:11:00,54.4,44.8,29.86,ESE,105,0.0,2.0,70,0.00,,CLR,0.00,VWS V14.01,2013-04-14 05:11:00,
2013-04-14 00:21:00,53.9,44.7,29.87,ESE,105,2.0,2.0,71,0.00,,CLR,0.00,VWS V14.01,2013-04-14 05:21:00,
2013-04-14 00:26:00,53.9,44.7,29.87,ESE,105,2.0,2.0,71,0.00,,CLR,0.00,VWS V14.01,2013-04-14 05:26:00,
2013-04-14 00:35:00,53.8,44.3,29.86,ESE,105,0.0,2.0,70,0.00,,CLR,0.00,VWS V14.01,2013-04-14 05:35:00,
2013-04-14 00:41:00,53.8,44.3,29.86,ESE,105,1.0,2.0,70,0.00,,CLR,0.00,VWS V14.01,2013-04-14 05:41:00,
2013-04-14 00:50:00,53.8,44.3,29.86,ESE,105,2.0,2.0,70,0.00,,CLR,0.00,VWS V14.01,2013-04-14 05:50:00,
2013-04-14 00:56:00,53.6,44.1,29.86,ESE,105,0.0,2.0,70,0.00,,CLR,0.00,VWS V14.01,2013-04-14 05:56:00,
2013-04-14 01:01:00,53.6,44.1,29.85,ESE,105,0.0,2.0,70,0.00,,CLR,0.00,VWS V14.01,2013-04-14 06:01:00,
2013-04-14 01:11:00,53.5,44.0,29.85,ESE,105,0.0,0.0,70,0.00,,CLR,0.00,VWS V14.01,2013-04-14 06:11:00,
2013-04-14 01:21:00,53.3,44.2,29.85,ESE,105,0.0,1.0,71,0.00,,CLR,0.00,VWS V14.01,2013-04-14 06:21:00,
2013-04-14 01:30:00,53.2,44.0,29.85,ESE,105,2.0,2.0,71,0.00,,CLR,0.00,VWS V14.01,2013-04-14 06:30:00,
2013-04-14 01:35:00,53.2,44.0,29.85,ESE,105,0.0,2.0,71,0.00,,CLR,0.00,VWS V14.01,2013-04-14 06:35:00,
2013-04-14 01:40:00,53.1,44.0,29.85,ESE,105,1.0,2.0,71,0.00,,CLR,0.00,VWS V14.01,2013-04-14 06:40:00,
2013-04-14 01:46:00,53.1,44.0,29.84,ESE,105,2.0,3.0,71,0.00,,CLR,0.00,VWS V14.01,2013-04-14 06:46:00,
2013-04-14 01:51:00,52.9,43.8,29.84,ESE,105,1.0,2.0,71,0.00,,CLR,0.00,VWS V14.01,2013-04-14 06:51:00,
2013-04-14 02:01:00,53.1,43.6,29.83,ESE,105,3.0,4.0,70,0.00,,CLR,0.00,VWS V14.01,2013-04-14 07:01:00,
2013-04-14 02:06:00,53.1,43.6,29.83,ESE,105,2.0,3.0,70,0.00,,CLR,0.00,VWS V14.01,2013-04-14 07:06:00,
2013-04-14 02:11:00,53.1,44.0,29.83,ESE,105,2.0,3.0,71,0.00,,CLR,0.00,VWS V14.01,2013-04-14 07:11:00,
2013-04-14 02:21:00,52.9,43.8,29.83,ESE,105,2.0,4.0,71,0.00,,CLR,0.00,VWS V14.01,2013-04-14 07:21:00,
2013-04-14 02:26:00,52.9,43.0,29.83,ESE,105,2.0,4.0,69,0.00,,CLR,0.00,VWS V14.01,2013-04-14 07:26:00,
2013-04-14 02:31:00,52.9,43.8,29.82,ESE,105,1.0,3.0,71,0.00,,CLR,0.00,VWS V14.01,2013-04-14 07:31:00,
2013-04-14 02:36:00,52.8,44.0,29.82,ESE,105,2.0,3.0,72,0.00,,CLR,0.00,VWS V14.01,2013-04-14 07:36:00,
2013-04-14 02:41:00,52.6,43.8,29.82,East,100,2.0,6.0,72,0.00,,CLR,0.00,VWS V14.01,2013-04-14 07:41:00,
2013-04-14 02:51:00,52.6,43.5,29.81,East,99,2.0,6.0,71,0.00,,CLR,0.00,VWS V14.01,2013-04-14 07:51:00,
2013-04-14 03:01:00,52.6,43.5,29.80,East,98,1.0,5.0,71,0.00,,CLR,0.00,VWS V14.01,2013-04-14 08:01:00,
2013-04-14 03:11:00,52.6,43.5,29.80,East,99,2.0,5.0,71,0.00,,CLR,0.00,VWS V14.01,2013-04-14 08:11:00,
2013-04-14 03:16:00,52.5,43.4,29.79,East,96,1.0,6.0,71,0.00,,CLR,0.00,VWS V14.01,2013-04-14 08:16:00,
2013-04-14 03:21:00,52.5,43.4,29.79,East,96,2.0,2.0,71,0.00,,CLR,0.00,VWS V14.01,2013-04-14 08:21:00,
2013-04-14 03:31:00,52.3,43.5,29.78,East,97,1.0,5.0,72,0.00,,CLR,0.00,VWS V14.01,2013-04-14 08:31:00,
2013-04-14 03:36:00,52.2,43.5,29.78,East,97,5.0,5.0,72,0.00,,CLR,0.00,VWS V14.01,2013-04-14 08:36:00,
2013-04-14 03:46:00,52.2,43.1,29.77,East,96,2.0,5.0,71,0.00,,CLR,0.00,VWS V14.01,2013-04-14 08:46:00,
2013-04-14 03:56:00,52.2,43.1,29.77,East,96,2.0,5.0,71,0.00,,CLR,0.00,VWS V14.01,2013-04-14 08:56:00,
2013-04-14 04:01:00,52.3,43.2,29.77,East,97,5.0,5.0,71,0.00,,CLR,0.00,VWS V14.01,2013-04-14 09:01:00,
2013-04-14 04:06:00,52.5,43.4,29.77,ESE,114,4.0,7.0,71,0.00,,CLR,0.00,VWS V14.01,2013-04-14 09:06:00,
2013-04-14 04:16:00,52.5,43.4,29.79,ESE,113,2.0,5.0,71,0.00,,CLR,0.00,VWS V14.01,2013-04-14 09:16:00,
2013-04-14 04:26:00,52.3,43.2,29.79,ESE,117,2.0,7.0,71,0.00,,CLR,0.00,VWS V14.01,2013-04-14 09:26:00,
2013-04-14 04:31:00,52.3,43.2,29.79,ESE,110,1.0,8.0,71,0.00,,CLR,0.00,VWS V14.01,2013-04-14 09:31:00,
2013-04-14 04:41:00,51.9,43.5,29.79,ESE,110,2.0,3.0,73,0.00,,CLR,0.00,VWS V14.01,2013-04-14 09:41:00,
2013-04-14 04:46:00,51.6,43.6,29.79,SE,146,2.0,4.0,74,0.00,,CLR,0.00,VWS V14.01,2013-04-14 09:46:00,
2013-04-14 04:51:00,51.6,43.6,29.79,SE,142,2.0,4.0,74,0.00,,CLR,0.00,VWS V14.01,2013-04-14 09:51:00,
2013-04-14 04:56:00,51.7,43.7,29.79,SE,138,1.0,3.0,74,0.00,,CLR,0.00,VWS V14.01,2013-04-14 09:56:00,
2013-04-14 05:01:00,52.0,43.6,29.78,SE,133,2.0,5.0,73,0.00,,CLR,0.00,VWS V14.01,2013-04-14 10:01:00,
2013-04-14 05:10:00,52.6,43.8,29.78,SE,136,7.0,7.0,72,0.00,,CLR,0.00,VWS V14.01,2013-04-14 10:10:00,
2013-04-14 05:16:00,52.9,44.1,29.78,SE,138,3.0,7.0,72,0.00,,CLR,0.00,VWS V14.01,2013-04-14 10:16:00,
2013-04-14 05:21:00,53.1,44.3,29.78,SSE,147,1.0,6.0,72,0.00,,CLR,0.00,VWS V14.01,2013-04-14 10:21:00,
2013-04-14 05:31:00,52.9,44.1,29.77,SE,140,2.0,5.0,72,0.00,,CLR,0.00,VWS V14.01,2013-04-14 10:31:00,
2013-04-14 05:36:00,52.9,44.5,29.77,SE,140,2.0,3.0,73,0.00,,CLR,0.00,VWS V14.01,2013-04-14 10:36:00,
2013-04-14 05:46:00,53.1,44.3,29.78,SE,134,3.0,6.0,72,0.00,,CLR,0.00,VWS V14.01,2013-04-14 10:46:00,
2013-04-14 05:51:00,53.1,44.3,29.78,SE,134,3.0,7.0,72,0.00,,CLR,0.00,VWS V14.01,2013-04-14 10:51:00,
2013-04-14 05:56:00,53.1,44.3,29.78,SE,138,2.0,8.0,72,0.00,,CLR,0.00,VWS V14.01,2013-04-14 10:56:00,
2013-04-14 06:05:00,53.2,44.4,29.78,SE,135,4.0,8.0,72,0.00,,CLR,0.00,VWS V14.01,2013-04-14 11:05:00,
2013-04-14 06:10:00,53.3,44.2,29.78,SE,124,2.0,7.0,71,0.00,,CLR,0.00,VWS V14.01,2013-04-14 11:10:00,
2013-04-14 06:16:00,53.5,44.3,29.78,SE,131,4.0,6.0,71,0.00,,CLR,0.00,VWS V14.01,2013-04-14 11:16:00,
2013-04-14 06:21:00,53.5,44.3,29.78,SSE,159,0.0,7.0,71,0.00,,CLR,0.00,VWS V14.01,2013-04-14 11:21:00,
2013-04-14 06:26:00,53.5,44.3,29.78,SE,132,1.0,7.0,71,0.00,,CLR,0.00,VWS V14.01,2013-04-14 11:26:00,
2013-04-14 06:31:00,53.5,44.3,29.79,SE,140,2.0,5.0,71,0.00,,CLR,0.00,VWS V14.01,2013-04-14 11:31:00,
2013-04-14 06:41:00,53.3,44.2,29.79,SE,145,2.0,4.0,71,0.00,,CLR,0.00,VWS V14.01,2013-04-14 11:41:00,
2013-04-14 06:46:00,53.3,44.2,29.79,ESE,123,1.0,5.0,71,0.00,,CLR,0.00,VWS V14.01,2013-04-14 11:46:00,
2013-04-14 06:56:00,53.2,44.4,29.79,SE,134,3.0,4.0,72,0.00,,CLR,0.00,VWS V14.01,2013-04-14 11:56:00,
2013-04-14 07:01:00,53.3,44.5,29.79,SSE,150,3.0,6.0,72,0.00,,CLR,0.00,VWS V14.01,2013-04-14 12:01:00,
2013-04-14 07:11:00,53.6,44.8,29.79,ESE,123,8.0,8.0,72,0.00,,CLR,0.00,VWS V14.01,2013-04-14 12:11:00,
2013-04-14 07:16:00,53.8,44.6,29.79,SE,144,3.0,8.0,71,0.00,,CLR,0.00,VWS V14.01,2013-04-14 12:16:00,
2013-04-14 07:25:00,53.9,44.7,29.79,SSE,157,2.0,5.0,71,0.00,,CLR,0.00,VWS V14.01,2013-04-14 12:25:00,
2013-04-14 07:30:00,54.1,45.3,29.78,SE,145,6.0,6.0,72,0.00,,CLR,0.00,VWS V14.01,2013-04-14 12:30:00,
2013-04-14 07:36:00,54.2,45.4,29.78,SE,132,2.0,6.0,72,0.00,,CLR,0.00,VWS V14.01,2013-04-14 12:36:00,
2013-04-14 07:46:00,54.5,45.7,29.77,SE,128,2.0,2.0,72,0.00,,CLR,0.00,VWS V14.01,2013-04-14 12:46:00,
2013-04-14 07:51:00,54.8,46.0,29.77,SE,128,1.0,2.0,72,0.00,,CLR,0.00,VWS V14.01,2013-04-14 12:51:00,
2013-04-14 08:01:00,55.3,46.1,29.77,SE,128,0.0,3.0,71,0.00,,CLR,0.00,VWS V14.01,2013-04-14 13:01:00,
2013-04-14 08:06:00,55.7,46.1,29.77,SE,128,0.0,3.0,70,0.00,,CLR,0.00,VWS V14.01,2013-04-14 13:06:00,
2013-04-14 08:16:00,56.3,46.7,29.78,SE,128,2.0,4.0,70,0.00,,CLR,0.00,VWS V14.01,2013-04-14 13:16:00,
2013-04-14 08:21:00,56.6,46.6,29.78,SE,133,0.0,4.0,69,0.00,,CLR,0.00,VWS V14.01,2013-04-14 13:21:00,
2013-04-14 08:31:00,57.3,46.8,29.77,ESE,115,5.0,5.0,68,0.00,,CLR,0.00,VWS V14.01,2013-04-14 13:31:00,
2013-04-14 08:36:00,57.6,46.7,29.77,ESE,114,3.0,5.0,67,0.00,,CLR,0.00,VWS V14.01,2013-04-14 13:36:00,
2013-04-14 08:46:00,58.4,47.5,29.77,ESE,111,3.0,7.0,67,0.00,,CLR,0.00,VWS V14.01,2013-04-14 13:46:00,
2013-04-14 08:56:00,59.0,47.3,29.77,ESE,112,2.0,7.0,65,0.00,,CLR,0.00,VWS V14.01,2013-04-14 13:56:00,
2013-04-14 09:01:00,59.3,47.5,29.76,East,99,7.0,10.0,65,0.00,,CLR,0.00,VWS V14.01,2013-04-14 14:01:00,
2013-04-14 09:11:00,60.1,47.5,29.76,SE,140,6.0,11.0,63,0.00,,CLR,0.00,VWS V14.01,2013-04-14 14:11:00,
2013-04-14 09:16:00,60.5,48.3,29.76,SE,127,3.0,8.0,64,0.00,,CLR,0.00,VWS V14.01,2013-04-14 14:16:00,
2013-04-14 09:21:00,61.0,47.9,29.76,ESE,102,5.0,12.0,62,0.00,,CLR,0.00,VWS V14.01,2013-04-14 14:21:00,
2013-04-14 09:26:00,61.5,48.4,29.76,ESE,113,3.0,8.0,62,0.00,,CLR,0.00,VWS V14.01,2013-04-14 14:26:00,
2013-04-14 09:31:00,61.8,47.8,29.75,ESE,123,3.0,10.0,60,0.00,,CLR,0.00,VWS V14.01,2013-04-14 14:31:00,
2013-04-14 09:36:00,62.3,48.2,29.75,East,101,8.0,8.0,60,0.00,,CLR,0.00,VWS V14.01,2013-04-14 14:36:00,
2013-04-14 09:46:00,62.7,48.2,29.74,SE,126,6.0,11.0,59,0.00,,CLR,0.00,VWS V14.01,2013-04-14 14:46:00,
2013-04-14 09:51:00,63.2,48.7,29.74,ESE,113,4.0,9.0,59,0.00,,CLR,0.00,VWS V14.01,2013-04-14 14:51:00,
2013-04-14 09:56:00,63.5,48.5,29.74,SE,138,6.0,8.0,58,0.00,,CLR,0.00,VWS V14.01,2013-04-14 14:56:00,
2013-04-14 10:01:00,63.9,48.8,29.74,SE,143,6.0,9.0,58,0.00,,CLR,0.00,VWS V14.01,2013-04-14 15:01:00,
2013-04-14 10:11:00,64.5,49.0,29.74,SE,140,3.0,12.0,57,0.00,,CLR,0.00,VWS V14.01,2013-04-14 15:11:00,
2013-04-14 10:16:00,64.8,49.2,29.74,ESE,121,7.0,11.0,57,0.00,,CLR,0.00,VWS V14.01,2013-04-14 15:16:00,
2013-04-14 10:21:00,65.2,48.2,29.74,SE,132,8.0,11.0,54,0.00,,CLR,0.00,VWS V14.01,2013-04-14 15:21:00,
2013-04-14 10:26:00,65.5,48.4,29.74,SE,132,7.0,10.0,54,0.00,,CLR,0.00,VWS V14.01,2013-04-14 15:26:00,
2013-04-14 10:31:00,65.8,49.7,29.74,SSE,148,10.0,16.0,56,0.00,,CLR,0.00,VWS V14.01,2013-04-14 15:31:00,
2013-04-14 10:36:00,66.1,49.0,29.74,SE,137,6.0,11.0,54,0.00,,CLR,0.00,VWS V14.01,2013-04-14 15:36:00,
2013-04-14 10:41:00,66.4,48.3,29.74,SSE,161,9.0,12.0,52,0.00,,CLR,0.00,VWS V14.01,2013-04-14 15:41:00,
2013-04-14 10:51:00,67.1,48.9,29.75,SE,138,8.0,15.0,52,0.00,,CLR,0.00,VWS V14.01,2013-04-14 15:51:00,
2013-04-14 11:01:00,67.6,49.4,29.76,SSE,151,7.0,15.0,52,0.00,,CLR,0.00,VWS V14.01,2013-04-14 16:01:00,
2013-04-14 11:11:00,68.3,48.4,29.76,SE,141,11.0,15.0,49,0.00,,CLR,0.00,VWS V14.01,2013-04-14 16:11:00,
2013-04-14 11:21:00,68.6,47.6,29.75,ESE,121,15.0,15.0,47,0.00,,CLR,0.00,VWS V14.01,2013-04-14 16:21:00,
2013-04-14 11:26:00,68.6,47.6,29.75,SSE,153,13.0,16.0,47,0.00,,CLR,0.00,VWS V14.01,2013-04-14 16:26:00,
2013-04-14 11:31:00,68.4,48.5,29.74,SSE,156,7.0,14.0,49,0.00,,CLR,0.00,VWS V14.01,2013-04-14 16:31:00,
2013-04-14 11:40:00,68.8,47.8,29.74,South,174,13.0,13.0,47,0.00,,CLR,0.00,VWS V14.01,2013-04-14 16:40:00,
2013-04-14 11:46:00,68.9,48.4,29.73,SSE,156,6.0,14.0,48,0.00,,CLR,0.00,VWS V14.01,2013-04-14 16:46:00,
2013-04-14 11:56:00,69.3,48.2,29.73,SE,136,10.0,16.0,47,0.00,,CLR,0.00,VWS V14.01,2013-04-14 16:56:00,
2013-04-14 12:06:00,69.8,47.5,29.73,SSE,167,15.0,16.0,45,0.00,,CLR,0.00,VWS V14.01,2013-04-14 17:06:00,
2013-04-14 12:16:00,69.4,47.2,29.72,ESE,111,10.0,19.0,45,0.00,,CLR,0.00,VWS V14.01,2013-04-14 17:16:00,
2013-04-14 12:21:00,69.4,47.7,29.72,SSE,159,7.0,18.0,46,0.00,,CLR,0.00,VWS V14.01,2013-04-14 17:21:00,
2013-04-14 12:31:00,69.9,48.8,29.72,SSE,150,10.0,17.0,47,0.00,,CLR,0.00,VWS V14.01,2013-04-14 17:31:00,
2013-04-14 12:36:00,70.1,49.0,29.72,SE,130,11.0,16.0,47,0.00,,CLR,0.00,VWS V14.01,2013-04-14 17:36:00,
2013-04-14 12:41:00,70.4,49.8,29.72,SE,133,13.0,17.0,48,0.00,,CLR,0.00,VWS V14.01,2013-04-14 17:41:00,
2013-04-14 12:51:00,71.1,51.0,29.72,SE,131,5.0,16.0,49,0.00,,CLR,0.00,VWS V14.01,2013-04-14 17:51:00,
2013-04-14 12:56:00,71.1,49.9,29.72,SE,142,15.0,15.0,47,0.00,,CLR,0.00,VWS V14.01,2013-04-14 17:56:00,
2013-04-14 13:05:00,70.9,51.3,29.72,SSE,148,9.0,18.0,50,0.00,,CLR,0.00,VWS V14.01,2013-04-14 18:05:00,
2013-04-14 13:11:00,71.3,52.3,29.72,SE,146,13.0,17.0,51,0.00,,CLR,0.00,VWS V14.01,2013-04-14 18:11:00,
2013-04-14 13:16:00,71.1,52.6,29.71,SE,125,11.0,16.0,52,0.00,,CLR,0.00,VWS V14.01,2013-04-14 18:16:00,
2013-04-14 13:21:00,71.1,52.1,29.71,SE,134,13.0,19.0,51,0.00,,CLR,0.00,VWS V14.01,2013-04-14 18:21:00,
2013-04-14 13:31:00,71.5,52.4,29.71,SSE,148,9.0,20.0,51,0.00,,CLR,0.00,VWS V14.01,2013-04-14 18:31:00,
2013-04-14 13:36:00,71.5,54.0,29.71,SE,146,6.0,17.0,54,0.00,,CLR,0.00,VWS V14.01,2013-04-14 18:36:00,
2013-04-14 13:46:00,71.8,54.3,29.69,SSE,161,12.0,18.0,54,0.00,,CLR,0.00,VWS V14.01,2013-04-14 18:46:00,
2013-04-14 13:56:00,72.1,53.5,29.69,SE,128,10.0,23.0,52,0.00,,CLR,0.00,VWS V14.01,2013-04-14 18:56:00,
2013-04-14 14:01:00,72.5,55.4,29.70,ESE,117,17.0,17.0,55,0.00,,CLR,0.00,VWS V14.01,2013-04-14 19:01:00,
2013-04-14 14:06:00,72.3,54.2,29.70,SSE,153,13.0,19.0,53,0.00,,CLR,0.00,VWS V14.01,2013-04-14 19:06:00,
2013-04-14 14:11:00,72.1,55.6,29.70,SE,127,11.0,17.0,56,0.00,,CLR,0.00,VWS V14.01,2013-04-14 19:11:00,
2013-04-14 14:21:00,72.3,55.7,29.68,SSE,150,12.0,20.0,56,0.00,,CLR,0.00,VWS V14.01,2013-04-14 19:21:00,
2013-04-14 14:31:00,72.3,56.2,29.68,SE,139,11.0,16.0,57,0.00,,CLR,0.00,VWS V14.01,2013-04-14 19:31:00,
2013-04-14 14:36:00,72.3,55.7,29.68,SE,141,10.0,19.0,56,0.00,,CLR,0.00,VWS V14.01,2013-04-14 19:36:00,
2013-04-14 14:46:00,72.7,56.6,29.68,SSE,160,20.0,20.0,57,0.00,,CLR,0.00,VWS V14.01,2013-04-14 19:46:00,
2013-04-14 14:56:00,72.8,57.2,29.68,East,91,13.0,20.0,58,0.00,,CLR,0.00,VWS V14.01,2013-04-14 19:56:00,
2013-04-14 15:01:00,72.7,56.1,29.68,ESE,122,12.0,21.0,56,0.00,,CLR,0.00,VWS V14.01,2013-04-14 20:01:00,
2013-04-14 15:06:00,72.3,55.7,29.68,SSE,167,17.0,18.0,56,0.00,,CLR,0.00,VWS V14.01,2013-04-14 20:06:00,
2013-04-14 15:16:00,72.1,56.0,29.67,SE,140,18.0,20.0,57,0.00,,CLR,0.00,VWS V14.01,2013-04-14 20:16:00,
2013-04-14 15:26:00,72.5,55.4,29.67,South,171,13.0,19.0,55,0.00,,CLR,0.00,VWS V14.01,2013-04-14 20:26:00,
2013-04-14 15:31:00,72.8,55.7,29.67,SSE,156,8.0,18.0,55,0.00,,CLR,0.00,VWS V14.01,2013-04-14 20:31:00,
2013-04-14 15:41:00,72.7,56.1,29.67,SE,145,9.0,17.0,56,0.00,,CLR,0.00,VWS V14.01,2013-04-14 20:41:00,
2013-04-14 15:51:00,72.5,55.9,29.66,SE,127,8.0,20.0,56,0.00,,CLR,0.00,VWS V14.01,2013-04-14 20:51:00,
2013-04-14 15:56:00,72.5,54.4,29.66,SSE,166,17.0,22.0,53,0.00,,CLR,0.00,VWS V14.01,2013-04-14 20:56:00,
2013-04-14 16:01:00,72.3,54.7,29.66,SE,145,9.0,20.0,54,0.00,,CLR,0.00,VWS V14.01,2013-04-14 21:01:00,
2013-04-14 16:11:00,72.3,56.2,29.66,SE,137,9.0,19.0,57,0.00,,CLR,0.00,VWS V14.01,2013-04-14 21:11:00,
2013-04-14 16:21:00,71.6,54.6,29.67,SE,144,15.0,19.0,55,0.00,,CLR,0.00,VWS V14.01,2013-04-14 21:21:00,
2013-04-14 16:26:00,71.3,54.8,29.67,ESE,107,12.0,23.0,56,0.00,,CLR,0.00,VWS V14.01,2013-04-14 21:26:00,
2013-04-14 16:31:00,71.3,55.3,29.67,SE,132,8.0,19.0,57,0.00,,CLR,0.00,VWS V14.01,2013-04-14 21:31:00,
2013-04-14 16:36:00,71.3,55.3,29.67,SE,135,15.0,19.0,57,0.00,,FEW047,0.00,VWS V14.01,2013-04-14 21:36:00,
2013-04-14 16:41:00,70.9,55.4,29.67,ESE,123,19.0,19.0,58,0.00,,FEW047,0.00,VWS V14.01,2013-04-14 21:41:00,
2013-04-14 16:51:00,70.6,54.6,29.67,SSE,155,11.0,16.0,57,0.00,,FEW047,0.00,VWS V14.01,2013-04-14 21:51:00,
2013-04-14 17:01:00,70.9,53.4,29.66,SE,139,14.0,18.0,54,0.00,,FEW047,0.00,VWS V14.01,2013-04-14 22:01:00,
2013-04-14 17:06:00,70.4,53.5,29.66,SSE,162,13.0,19.0,55,0.00,,FEW047,0.00,VWS V14.01,2013-04-14 22:06:00,
2013-04-14 17:11:00,70.3,53.9,29.66,SE,138,11.0,20.0,56,0.00,,FEW047,0.00,VWS V14.01,2013-04-14 22:11:00,
2013-04-14 17:21:00,70.1,53.2,29.66,ESE,115,10.0,18.0,55,0.00,,FEW047,0.00,VWS V14.01,2013-04-14 22:21:00,
2013-04-14 17:26:00,70.1,53.7,29.66,SSE,152,12.0,17.0,56,0.00,,FEW047,0.00,VWS V14.01,2013-04-14 22:26:00,
2013-04-14 17:36:00,69.9,53.5,29.66,SE,129,14.0,19.0,56,0.00,,BKN060,0.00,VWS V14.01,2013-04-14 22:36:00,
2013-04-14 17:41:00,69.8,52.9,29.66,ESE,103,10.0,18.0,55,0.00,,BKN060,0.00,VWS V14.01,2013-04-14 22:41:00,
2013-04-14 17:46:00,69.4,53.5,29.67,ESE,105,10.0,20.0,57,0.00,,BKN060,0.00,VWS V14.01,2013-04-14 22:46:00,
2013-04-14 17:51:00,68.9,53.1,29.67,ESE,102,8.0,13.0,57,0.00,,BKN060,0.00,VWS V14.01,2013-04-14 22:51:00,
2013-04-14 18:01:00,68.4,53.1,29.66,ESE,121,10.0,18.0,58,0.00,,BKN060,0.00,VWS V14.01,2013-04-14 23:01:00,
2013-04-14 18:06:00,68.1,53.2,29.66,ESE,108,8.0,16.0,59,0.00,,BKN060,0.00,VWS V14.01,2013-04-14 23:06:00,
2013-04-14 18:11:00,67.9,53.1,29.66,ESE,110,16.0,17.0,59,0.00,,BKN060,0.00,VWS V14.01,2013-04-14 23:11:00,
2013-04-14 18:16:00,68.1,53.2,29.66,SE,130,15.0,16.0,59,0.00,,BKN060,0.00,VWS V14.01,2013-04-14 23:16:00,
2013-04-14 18:21:00,68.1,53.2,29.66,East,91,10.0,15.0,59,0.00,,BKN060,0.00,VWS V14.01,2013-04-14 23:21:00,
2013-04-14 18:26:00,67.8,53.0,29.66,ESE,109,11.0,16.0,59,0.00,,BKN060,0.00,VWS V14.01,2013-04-14 23:26:00,
2013-04-14 18:31:00,67.8,53.0,29.66,ESE,117,8.0,18.0,59,0.00,,BKN060,0.00,VWS V14.01,2013-04-14 23:31:00,
2013-04-14 18:41:00,67.4,53.0,29.66,East,97,11.0,14.0,60,0.00,,SCT050,0.00,VWS V14.01,2013-04-14 23:41:00,
2013-04-14 18:46:00,67.4,53.0,29.66,ESE,122,7.0,13.0,60,0.00,,SCT050,0.00,VWS V14.01,2013-04-14 23:46:00,
2013-04-14 18:51:00,67.1,53.2,29.66,SE,137,5.0,15.0,61,0.00,,SCT050,0.00,VWS V14.01,2013-04-14 23:51:00,
2013-04-14 19:01:00,66.6,53.2,29.66,East,101,6.0,11.0,62,0.00,,SCT050,0.00,VWS V14.01,2013-04-15 00:01:00,
2013-04-14 19:06:00,66.4,53.0,29.66,ESE,105,7.0,14.0,62,0.00,,SCT050,0.00,VWS V14.01,2013-04-15 00:06:00,
2013-04-14 19:11:00,66.1,53.2,29.66,SE,130,4.0,11.0,63,0.00,,SCT050,0.00,VWS V14.01,2013-04-15 00:11:00,
2013-04-14 19:16:00,66.0,53.5,29.66,SE,135,4.0,7.0,64,0.00,,SCT050,0.00,VWS V14.01,2013-04-15 00:16:00,
2013-04-14 19:21:00,65.8,53.7,29.66,SE,141,3.0,7.0,65,0.00,,BKN050,0.00,VWS V14.01,2013-04-15 00:21:00,
2013-04-14 19:31:00,65.6,54.0,29.67,SSE,150,4.0,6.0,66,0.00,,BKN050,0.00,VWS V14.01,2013-04-15 00:31:00,
2013-04-14 19:36:00,65.6,54.0,29.67,SE,140,4.0,7.0,66,0.00,,BKN050,0.00,VWS V14.01,2013-04-15 00:36:00,
2013-04-14 19:46:00,65.6,53.5,29.67,East,95,6.0,8.0,65,0.00,,BKN050,0.00,VWS V14.01,2013-04-15 00:46:00,
2013-04-14 19:51:00,65.6,53.5,29.67,SE,136,2.0,9.0,65,0.00,,BKN050,0.00,VWS V14.01,2013-04-15 00:51:00,
2013-04-14 19:56:00,65.6,53.5,29.67,ESE,110,3.0,8.0,65,0.00,,BKN050,0.00,VWS V14.01,2013-04-15 00:56:00,
2013-04-14 20:01:00,65.6,53.5,29.68,ESE,109,1.0,8.0,65,0.00,,BKN050,0.00,VWS V14.01,2013-04-15 01:01:00,
2013-04-14 20:11:00,65.5,53.4,29.68,SE,133,5.0,8.0,65,0.00,,BKN050,0.00,VWS V14.01,2013-04-15 01:11:00,
2013-04-14 20:21:00,65.3,53.2,29.68,SE,143,5.0,10.0,65,0.00,,BKN050,0.00,VWS V14.01,2013-04-15 01:21:00,
2013-04-14 20:26:00,65.2,53.6,29.68,SE,144,3.0,10.0,66,0.00,,BKN050,0.00,VWS V14.01,2013-04-15 01:26:00,
2013-04-14 20:31:00,65.0,53.8,29.69,SSE,166,5.0,7.0,67,0.00,,BKN050,0.00,VWS V14.01,2013-04-15 01:31:00,
2013-04-14 20:36:00,64.8,54.0,29.69,SE,132,3.0,10.0,68,0.00,,OVC055,0.00,VWS V14.01,2013-04-15 01:36:00,
2013-04-14 20:41:00,64.7,53.9,29.69,SE,140,3.0,8.0,68,0.00,,OVC055,0.00,VWS V14.01,2013-04-15 01:41:00,
2013-04-14 20:51:00,64.8,53.6,29.69,SE,140,1.0,9.0,67,0.00,,OVC055,0.00,VWS V14.01,2013-04-15 01:51:00,
2013-04-14 20:56:00,64.5,53.7,29.69,SSE,148,2.0,9.0,68,0.00,,OVC055,0.00,VWS V14.01,2013-04-15 01:56:00,
2013-04-14 21:01:00,64.2,53.4,29.69,SE,124,3.0,7.0,68,0.00,,OVC055,0.00,VWS V14.01,2013-04-15 02:01:00,
2013-04-14 21:11:00,63.5,53.5,29.69,SSE,153,3.0,5.0,70,0.00,,OVC055,0.00,VWS V14.01,2013-04-15 02:11:00,
2013-04-14 21:16:00,63.1,53.6,29.70,SE,139,3.0,8.0,71,0.00,,OVC055,0.00,VWS V14.01,2013-04-15 02:16:00,
2013-04-14 21:21:00,62.9,53.4,29.70,SE,134,5.0,8.0,71,0.00,,OVC055,0.00,VWS V14.01,2013-04-15 02:21:00,
2013-04-14 21:31:00,62.6,53.1,29.71,SE,127,7.0,9.0,71,0.00,,OVC055,0.00,VWS V14.01,2013-04-15 02:31:00,
2013-04-14 21:36:00,62.6,53.1,29.71,SE,138,3.0,8.0,71,0.00,,BKN046,0.00,VWS V14.01,2013-04-15 02:36:00,
2013-04-14 21:41:00,62.3,53.2,29.71,SSE,155,9.0,9.0,72,0.00,,BKN046,0.00,VWS V14.01,2013-04-15 02:41:00,
2013-04-14 21:51:00,62.0,53.3,29.71,SSE,154,7.0,10.0,73,0.00,,BKN046,0.00,VWS V14.01,2013-04-15 02:51:00,
2013-04-14 21:56:00,61.8,53.1,29.71,SE,138,5.0,12.0,73,0.00,,BKN046,0.00,VWS V14.01,2013-04-15 02:56:00,
2013-04-14 22:06:00,62.0,53.3,29.71,SSE,151,5.0,11.0,73,0.00,,BKN046,0.00,VWS V14.01,2013-04-15 03:06:00,
2013-04-14 22:11:00,62.0,53.3,29.71,South,169,8.0,11.0,73,0.00,,BKN046,0.00,VWS V14.01,2013-04-15 03:11:00,
2013-04-14 22:21:00,62.1,53.0,29.71,SE,141,9.0,12.0,72,0.00,,BKN046,0.00,VWS V14.01,2013-04-15 03:21:00,
2013-04-14 22:26:00,62.1,53.3,29.71,SE,146,7.0,10.0,73,0.00,,BKN046,0.00,VWS V14.01,2013-04-15 03:26:00,
2013-04-14 22:36:00,62.0,53.6,29.72,SSE,147,6.0,12.0,74,0.00,,OVC050,0.00,VWS V14.01,2013-04-15 03:36:00,
2013-04-14 22:41:00,62.0,53.6,29.72,South,173,5.0,10.0,74,0.00,,OVC050,0.00,VWS V14.01,2013-04-15 03:41:00,
2013-04-14 22:51:00,62.0,53.3,29.72,SSE,157,7.0,9.0,73,0.00,,OVC050,0.00,VWS V14.01,2013-04-15 03:51:00,
2013-04-14 22:56:00,62.0,53.3,29.72,SSE,153,6.0,10.0,73,0.00,,OVC050,0.00,VWS V14.01,2013-04-15 03:56:00,
2013-04-14 23:01:00,62.1,53.3,29.72,SE,146,5.0,11.0,73,0.00,,OVC050,0.00,VWS V14.01,2013-04-15 04:01:00,
2013-04-14 23:06:00,62.1,53.3,29.72,South,172,7.0,14.0,73,0.00,,OVC050,0.00,VWS V14.01,2013-04-15 04:06:00,
2013-04-14 23:16:00,62.0,53.6,29.72,SSE,158,5.0,9.0,74,0.00,,OVC050,0.00,VWS V14.01,2013-04-15 04:16:00,
2013-04-14 23:26:00,61.8,53.4,29.72,SSE,161,6.0,9.0,74,0.00,,OVC050,0.00,VWS V14.01,2013-04-15 04:26:00,
2013-04-14 23:31:00,61.6,53.2,29.73,South,178,5.0,9.0,74,0.00,,OVC050,0.00,VWS V14.01,2013-04-15 04:31:00,
2013-04-14 23:36:00,61.6,53.2,29.73,SSE,168,5.0,9.0,74,0.00,,OVC060,0.00,VWS V14.01,2013-04-15 04:36:00,
2013-04-14 23:46:00,61.6,53.2,29.74,SSE,161,4.0,8.0,74,0.00,,OVC060,0.00,VWS V14.01,2013-04-15 04:46:00,
2013-04-14 23:51:00,61.8,53.1,29.74,SSE,156,7.0,11.0,73,0.00,,OVC060,0.00,VWS V14.01,2013-04-15 04:51:00,